Wind_Speed
39 38 35 33 31 29 28 26 26 25 25 24 23 23 22 22 22 22 22 22 24 23 25 26 26 27 28 28 28 28 28 28 28 27 26 25 26 28 30 32 35 38 40
42 41 40 38 37 34 32 30 29 29 29 28 27 27 27 26 25 25 24 24 24 25 24 25 26 26 27 27 26 27 27 26 25 24 24 25 26 28 30 33 36 39 41
39 39 39 39 39 38 37 36 34 33 32 31 30 31 31 31 31 29 28 27 26 27 27 27 26 26 27 27 26 25 26 25 24 25 25 26 27 29 32 36 38 41 44
35 36 38 38 39 39 39 39 38 37 36 36 36 35 35 35 34 33 31 31 29 28 29 28 28 28 27 28 27 27 25 25 24 25 26 28 28 31 33 37 40 43 45
38 36 36 37 38 38 38 39 38 38 37 38 39 39 38 37 37 36 33 33 32 29 29 28 29 30 29 29 28 27 27 26 26 25 28 29 32 33 35 37 40 41 44
43 41 39 38 38 38 38 38 38 38 36 36 39 40 39 38 38 38 36 35 33 30 29 27 28 29 29 29 28 29 29 29 30 29 30 32 35 35 37 39 41 41 43
47 45 44 43 41 40 39 40 39 39 38 40 41 41 40 40 40 40 37 35 34 31 30 29 28 28 28 29 30 31 30 31 31 32 33 35 35 36 38 40 42 42 43
51 50 49 47 46 44 42 41 39 39 40 43 43 41 42 42 40 40 38 37 36 32 30 29 30 29 29 31 31 33 32 33 34 36 35 37 38 38 40 43 45 45 44
54 53 51 50 50 47 46 44 40 41 46 44 44 43 41 41 41 39 38 38 38 36 32 31 33 31 33 34 35 34 36 36 37 39 40 41 41 41 43 46 46 47 47
57 54 51 51 51 49 48 45 44 44 48 47 45 44 44 42 41 40 39 38 39 38 36 32 34 34 35 37 39 39 40 40 40 41 41 42 44 45 45 48 49 48 48
61 56 53 51 50 49 48 48 46 47 50 48 45 46 45 44 43 41 41 40 39 40 38 37 37 37 38 39 42 43 42 41 42 43 44 45 45 46 47 49 52 52 49
62 59 55 51 52 51 51 49 49 52 52 48 45 45 45 45 44 43 42 42 40 40 39 39 39 38 40 40 41 43 41 43 45 47 47 48 47 49 50 52 54 54 52
60 57 54 53 51 53 54 53 53 53 53 50 47 45 44 45 45 44 45 43 40 39 39 39 38 41 41 43 44 45 47 48 49 50 51 48 48 50 50 54 53 52 55
64 61 59 56 55 53 54 55 55 54 54 52 50 48 46 46 46 46 45 45 43 41 41 43 42 43 44 46 48 49 50 51 52 52 51 52 50 50 51 54 52 52 53
68 67 63 58 55 55 54 54 55 54 56 53 52 51 49 48 48 48 48 48 47 46 46 46 46 46 47 50 51 53 53 53 51 52 53 54 52 51 51 50 51 53 55
68 68 63 60 58 57 56 55 55 55 54 54 55 54 53 52 52 51 51 51 51 50 50 50 50 51 52 53 53 53 54 55 56 55 56 54 53 52 52 52 52 54 56
75 70 65 61 59 59 58 56 56 55 54 55 55 55 56 55 55 55 55 55 54 54 54 53 53 54 55 55 56 57 58 58 59 59 57 55 53 53 56 53 55 57 57
72 68 63 60 59 60 60 58 56 55 56 56 56 57 58 59 59 59 59 58 58 57 56 56 56 57 57 58 58 59 61 61 61 60 56 54 54 58 57 54 56 56 56
74 71 69 64 62 61 62 61 58 58 58 58 58 58 59 58 56 56 56 57 58 59 58 58 57 57 58 59 60 60 61 60 57 53 54 54 55 55 56 58 60 59 59
76 75 72 68 66 66 65 62 61 60 59 58 59 60 60 59 58 57 55 56 57 58 58 58 57 58 58 58 58 57 56 55 54 56 56 56 56 58 61 62 60 63 66
76 76 73 71 69 67 65 63 62 61 62 61 61 62 61 60 59 58 58 57 56 56 56 56 56 57 57 55 55 54 54 57 57 58 59 59 60 61 63 65 68 69 70
80 80 76 74 71 69 66 64 63 63 64 64 65 64 63 61 61 60 59 60 59 58 57 57 58 58 57 56 57 57 59 60 60 62 64 64 66 68 70 71 72 74 74
72 72 74 70 68 66 67 66 65 65 67 68 69 67 65 66 66 65 63 62 62 62 62 63 61 60 60 62 62 62 63 65 66 69 70 71 72 74 75 77 78 79 81
73 67 67 65 68 67 68 67 65 65 65 69 70 69 68 68 68 66 65 65 64 64 65 66 64 64 66 67 69 70 70 71 72 74 76 78 79 80 81 82 83 84 85
83 74 65 63 67 69 71 69 64 64 65 69 68 69 70 71 70 71 70 71 70 69 69 70 71 71 73 74 75 75 76 77 79 81 83 85 85 85 86 87 88 89 91
84 69 61 65 63 68 71 72 72 70 68 68 68 69 70 72 71 71 71 73 76 75 75 75 77 79 81 82 82 83 84 84 86 87 88 89 90 92 92 93 94 94 96
Wind_Direction
239 242 244 247 248 249 248 249 252 255 259 262 266 269 273 275 276 278 276 277 277 277 276 274 273 269 270 271 272 273 274 276 277 283 284 281 282 283 285 287 287 287 287
241 244 246 247 250 250 250 252 253 256 259 262 263 266 270 274 274 279 280 283 283 283 280 278 278 278 272 274 276 277 279 283 283 285 285 285 288 291 292 293 294 296 295
241 241 245 247 249 251 253 253 255 257 259 261 264 265 267 268 272 276 277 282 286 286 286 284 282 279 278 278 282 284 284 286 285 286 290 292 296 298 299 298 299 299 299
241 241 242 245 247 250 254 255 256 256 258 262 264 266 269 270 271 273 276 281 285 288 288 287 287 284 282 282 286 289 289 287 283 285 289 294 297 299 299 300 302 302 302
243 245 246 246 249 251 252 254 255 258 258 260 263 265 268 270 273 272 275 280 285 286 289 288 287 285 283 284 285 288 290 288 286 287 291 295 296 297 299 302 302 304 306
247 248 249 249 249 251 252 254 254 256 257 259 262 263 266 269 272 275 277 280 286 289 287 285 284 283 285 286 286 289 293 291 291 290 293 295 297 296 299 303 304 306 307
246 248 250 251 250 252 254 254 253 253 255 255 260 264 266 269 272 276 282 284 287 292 290 284 284 284 284 288 290 293 294 295 293 294 295 297 298 298 300 302 303 305 309
247 247 248 248 251 251 249 253 253 251 253 255 260 262 266 271 272 276 280 284 289 292 289 286 285 286 289 292 294 294 296 300 297 296 297 296 296 298 301 302 304 306 309
248 247 245 247 247 251 250 251 248 246 250 255 257 261 264 267 272 275 279 284 288 291 288 290 288 290 292 294 297 299 297 297 297 297 298 297 299 301 303 303 305 306 308
247 247 245 247 248 249 248 250 246 245 249 253 256 259 262 264 268 273 276 281 284 288 289 291 291 291 292 294 296 298 298 298 297 296 298 301 301 301 302 303 306 308 310
244 243 245 243 246 248 248 245 246 246 250 255 255 257 261 265 265 269 273 276 279 283 286 289 290 291 291 292 294 297 297 297 299 299 300 299 300 302 303 304 307 310 309
243 242 241 242 242 245 245 246 246 248 252 256 256 257 260 262 264 266 270 274 274 276 281 285 288 290 291 295 296 297 297 298 299 300 300 299 302 302 302 304 306 309 310
242 241 241 240 241 242 244 245 245 249 253 257 258 257 260 262 264 265 269 271 273 276 279 283 287 291 292 297 298 299 298 300 300 301 302 303 301 303 301 304 306 307 310
242 244 242 241 242 242 243 246 248 252 255 258 262 262 260 261 265 266 268 271 275 279 281 284 287 291 294 295 297 297 298 300 301 302 302 302 301 300 301 302 305 307 308
244 244 243 241 242 244 246 249 251 252 257 259 262 263 262 262 264 267 270 271 276 281 282 283 286 288 291 294 297 297 298 299 299 300 300 300 296 298 304 302 304 304 307
239 242 241 242 243 245 248 250 251 252 255 258 260 262 264 265 266 268 271 275 277 279 281 282 286 289 291 293 296 295 296 298 300 298 297 298 297 300 304 303 303 302 307
237 240 242 243 244 245 247 249 252 255 258 260 261 264 266 268 268 269 271 273 276 279 280 282 284 287 289 292 293 295 296 296 298 297 298 300 298 300 302 302 302 303 306
239 240 242 243 245 246 248 250 251 253 256 258 260 262 264 266 268 270 272 273 275 278 280 282 285 287 288 290 292 293 295 297 297 300 299 297 296 297 301 302 302 305 308
240 240 242 242 243 246 247 248 250 251 254 256 259 263 264 266 268 270 272 274 276 277 279 281 283 285 286 287 289 292 294 297 300 299 299 300 299 300 302 304 305 304 305
240 241 243 244 245 246 247 249 249 251 253 256 259 262 265 268 271 273 274 275 276 277 279 282 283 283 285 287 290 293 295 296 298 298 299 298 300 300 300 299 301 301 302
238 243 242 243 244 245 247 247 249 251 253 256 260 261 263 267 270 273 276 277 277 278 280 281 282 283 285 288 290 294 294 296 296 297 297 297 297 298 297 297 298 300 303
232 238 242 244 246 247 247 248 250 252 254 255 257 260 263 266 269 270 272 274 276 277 278 280 281 283 284 287 288 291 293 293 293 294 295 296 295 296 295 297 299 301 302
231 236 242 243 247 248 249 249 251 253 253 253 255 257 260 263 266 268 271 273 274 275 277 278 279 282 284 285 287 289 289 290 291 291 292 293 294 294 297 299 301 302 303
228 232 240 244 247 249 249 250 249 249 252 255 256 258 260 262 264 268 269 270 274 277 277 278 277 280 283 286 287 288 289 290 290 292 294 294 296 298 299 299 301 301 303
230 232 236 243 242 242 246 246 245 250 253 254 257 259 260 262 265 267 268 271 273 275 276 277 276 280 283 285 285 287 289 291 292 294 295 296 298 298 299 300 301 302 304
228 221 232 231 233 238 240 241 244 248 253 254 257 258 261 262 265 267 269 271 272 272 274 276 278 281 282 284 285 287 288 291 294 295 296 298 297 298 298 300 302 303 304
Height
10874 10876 10878 10879 10880 10882 10883 10883 10884 10884 10884 10884 10885 10885 10885 10885 10884 10884 10884 10883 10883 10882 10881 10880 10879 10878 10876 10875 10874 10873 10872 10870 10869 10867 10865 10863 10861 10858 10856 10854 10850 10847 10843
10868 10871 10872 10874 10875 10877 10878 10879 10880 10881 10881 10881 10881 10881 10882 10881 10880 10880 10879 10879 10879 10878 10878 10876 10875 10873 10873 10871 10870 10868 10867 10865 10864 10862 10860 10858 10855 10854 10851 10848 10844 10840 10836
10862 10864 10866 10868 10870 10871 10873 10874 10876 10877 10877 10877 10877 10877 10877 10876 10876 10876 10875 10875 10874 10873 10873 10872 10871 10870 10869 10867 10866 10864 10862 10861 10859 10857 10854 10852 10849 10847 10844 10841 10838 10834 10830
10856 10858 10860 10862 10863 10865 10867 10869 10870 10871 10872 10872 10872 10872 10872 10872 10872 10871 10871 10870 10870 10869 10868 10867 10867 10865 10864 10863 10861 10859 10857 10855 10854 10852 10849 10847 10844 10842 10839 10836 10832 10828 10823
10850 10852 10854 10856 10858 10860 10861 10862 10864 10865 10867 10867 10867 10867 10867 10867 10867 10866 10866 10866 10866 10865 10864 10863 10862 10861 10859 10858 10856 10854 10852 10850 10848 10846 10844 10842 10839 10836 10833 10830 10827 10823 10818
10843 10846 10848 10850 10852 10854 10855 10857 10859 10860 10861 10861 10861 10862 10862 10862 10862 10861 10861 10862 10862 10861 10859 10858 10857 10856 10854 10853 10851 10849 10847 10845 10843 10840 10838 10836 10834 10831 10827 10824 10820 10817 10811
10836 10839 10842 10844 10846 10848 10850 10851 10853 10854 10855 10855 10855 10856 10857 10857 10857 10856 10856 10856 10856 10856 10855 10854 10852 10851 10850 10848 10846 10844 10842 10840 10837 10835 10833 10830 10827 10824 10821 10818 10813 10810 10805
10828 10831 10834 10836 10839 10842 10843 10844 10847 10848 10848 10848 10849 10850 10852 10852 10851 10851 10851 10851 10850 10850 10849 10848 10847 10846 10845 10843 10841 10839 10836 10834 10831 10828 10826 10824 10821 10818 10814 10810 10807 10803 10799
10818 10822 10826 10828 10831 10834 10836 10838 10840 10841 10841 10842 10843 10845 10846 10846 10846 10846 10846 10845 10844 10844 10843 10842 10841 10840 10839 10837 10834 10832 10830 10828 10825 10822 10819 10816 10814 10810 10806 10802 10799 10795 10791
10808 10812 10817 10821 10824 10827 10829 10831 10833 10834 10833 10835 10837 10839 10840 10840 10840 10840 10840 10839 10838 10837 10836 10836 10834 10833 10831 10829 10827 10825 10823 10821 10818 10815 10812 10809 10805 10802 10799 10794 10790 10786 10783
10796 10801 10806 10812 10816 10819 10822 10824 10826 10826 10826 10828 10831 10832 10834 10834 10834 10834 10833 10833 10833 10831 10830 10828 10827 10825 10824 10822 10820 10817 10815 10813 10810 10808 10805 10801 10797 10794 10790 10786 10781 10777 10774
10785 10791 10796 10802 10807 10810 10814 10816 10818 10817 10819 10821 10824 10825 10826 10827 10826 10826 10826 10826 10825 10824 10823 10821 10819 10818 10816 10814 10812 10809 10807 10805 10802 10799 10796 10793 10789 10785 10782 10777 10772 10767 10763
10776 10781 10786 10792 10797 10800 10804 10807 10809 10811 10812 10814 10816 10818 10819 10819 10818 10818 10818 10817 10817 10816 10814 10813 10812 10810 10808 10806 10804 10801 10798 10796 10794 10791 10788 10785 10781 10777 10773 10768 10764 10758 10753
10766 10771 10776 10781 10786 10791 10794 10797 10800 10803 10805 10807 10809 10810 10811 10811 10811 10810 10809 10809 10808 10807 10806 10804 10803 10801 10799 10798 10795 10793 10790 10787 10785 10782 10779 10776 10772 10768 10764 10759 10755 10751 10745
10756 10760 10766 10772 10777 10782 10786 10789 10792 10795 10796 10799 10801 10801 10802 10802 10802 10802 10801 10799 10799 10798 10797 10796 10794 10793 10791 10788 10786 10783 10780 10778 10775 10772 10769 10766 10763 10759 10755 10751 10746 10740 10736
10745 10748 10757 10763 10769 10772 10776 10780 10782 10786 10789 10790 10791 10791 10792 10793 10793 10793 10792 10791 10790 10789 10788 10787 10785 10783 10781 10779 10776 10773 10770 10767 10765 10762 10759 10755 10752 10749 10745 10741 10736 10731 10726
10733 10741 10748 10754 10759 10763 10767 10770 10773 10777 10780 10781 10781 10781 10782 10783 10783 10783 10782 10781 10781 10780 10779 10777 10776 10774 10771 10768 10766 10763 10760 10758 10755 10751 10748 10745 10741 10738 10734 10729 10725 10721 10716
10727 10733 10738 10743 10749 10753 10757 10762 10765 10768 10769 10769 10770 10770 10771 10771 10772 10772 10772 10772 10771 10770 10768 10767 10766 10763 10760 10757 10755 10752 10749 10746 10743 10740 10737 10733 10730 10727 10722 10719 10714 10710 10706
10714 10722 10728 10733 10738 10741 10746 10751 10754 10758 10758 10758 10759 10759 10759 10760 10762 10762 10762 10761 10761 10759 10757 10756 10754 10752 10749 10746 10743 10740 10738 10736 10732 10729 10726 10722 10718 10714 10710 10706 10702 10698 10695
10703 10708 10717 10722 10726 10730 10735 10740 10744 10746 10747 10748 10749 10748 10749 10751 10751 10751 10751 10751 10750 10748 10746 10744 10742 10739 10737 10734 10731 10728 10726 10723 10720 10716 10713 10710 10706 10702 10698 10694 10690 10687 10683
10694 10697 10704 10709 10712 10718 10724 10730 10733 10736 10737 10738 10738 10737 10739 10740 10741 10741 10741 10740 10739 10737 10735 10732 10729 10727 10724 10722 10719 10716 10713 10709 10706 10703 10700 10697 10694 10690 10686 10682 10678 10674 10670
10682 10685 10692 10697 10702 10709 10714 10718 10722 10724 10726 10726 10725 10726 10729 10729 10729 10729 10729 10727 10726 10725 10723 10720 10717 10715 10712 10710 10707 10704 10701 10697 10694 10690 10686 10684 10680 10677 10672 10669 10664 10660 10655
10672 10676 10681 10687 10692 10698 10703 10707 10709 10712 10712 10711 10712 10715 10717 10716 10716 10716 10716 10715 10713 10712 10710 10707 10706 10704 10700 10697 10694 10691 10688 10684 10681 10675 10672 10669 10666 10661 10657 10653 10648 10643 10638
10663 10668 10673 10678 10680 10685 10689 10693 10696 10697 10699 10700 10701 10703 10705 10704 10704 10705 10703 10702 10701 10700 10697 10695 10692 10689 10686 10683 10679 10676 10672 10669 10665 10661 10653 10650 10647 10643 10639 10634 10630 10625 10621
10653 10659 10663 10664 10667 10670 10675 10680 10682 10685 10688 10689 10690 10691 10691 10692 10692 10692 10691 10690 10688 10686 10684 10680 10677 10673 10670 10667 10664 10659 10655 10652 10648 10644 10638 10633 10628 10623 10620 10615 10611 10605 10600
10641 10647 10646 10650 10653 10656 10660 10665 10670 10674 10676 10677 10678 10679 10679 10679 10679 10678 10678 10676 10673 10671 10668 10665 10662 10658 10654 10650 10647 10643 10638 10634 10629 10625 10620 10614 10608 10602 10598 10595 10590 10585 10579